Home   Weather   Key West   Past weeks

Flag for USA Past Weather in Key West, Florida, USA — Yesterday and Last 2 Weeks

Now
83 °F

Sunny.


Feels Like: 92 °F
Forecast: 82 / 87 °F
Wind: 8 mph from Northeast

Location: Key West International Airport

Current Time: Oct 1, 2016 at 10:02:52 AM

Latest Report: Oct 1, 2016 at 8:53 AM


Visibility: 10 mi

Pressure: 30.00 "Hg

Humidity: 82%

Dew Point: 77 °F

Location of Key WestLocation

Past Weather in Key West — Graph

°F

Key West Temperature Yesterday

Maximum temperature yesterday: 89 °F (at 1:53 PM)
Minimum temperature yesterday: 77 °F (at 8:53 PM)
Average temperature yesterday: 84 °F

High & Low Weather Summary for the Past Weeks

 TemperatureHumidityPressure
High90 °F (Sep 20, 3:53 PM)100% (Sep 24, 7:53 AM)30.09 "Hg (Sep 24, 7:53 AM)
Low75 °F (Sep 24, 12:53 PM)57% (Sep 25, 3:53 PM)29.90 "Hg (Sep 27, 5:53 AM)
Average84 °F77%29.99 "Hg
* Reported Sep 16 8:53 AM — Oct 1 8:53 AM, Key West, Weather by CustomWeather, © 2016

Note: Actual official high and low records may vary slightly from our data, if they occured in-between our weather recording intervals... More about our weather records

Advertising

Key West Weather History for the Previous 24 Hours

Scroll right to see more
 ConditionsComfort  
Time TempWeatherWind HumidityBarometerVisibility
8:53 AM
Sat, Oct 1
83 °FSunny.8 mph82%30.00 "Hg10 mi
7:53 AM81 °FSunny.7 mph91%29.99 "Hg10 mi
6:53 AM81 °FClear.6 mph85%29.98 "Hg10 mi
5:53 AM81 °FClear.6 mph74%29.97 "Hg10 mi
4:53 AM80 °FClear.7 mph79%29.96 "Hg10 mi
3:53 AM81 °FPassing clouds.5 mph74%29.97 "Hg10 mi
2:53 AM81 °FClear.5 mph79%29.97 "Hg10 mi
1:53 AM81 °FPassing clouds.6 mph82%29.98 "Hg10 mi
12:53 AM81 °FClear.3 mph79%30.01 "Hg10 mi
11:53 PM
Fri, Sep 30
81 °FPassing clouds.7 mph82%30.02 "Hg10 mi
10:53 PM80 °FClear.16 mph81%30.02 "Hg10 mi
9:53 PM77 °FLight rain. Passing clouds.8 mph90%30.02 "Hg10 mi
8:53 PM77 °FLight rain. Passing clouds.9 mph88%30.03 "Hg10 mi
7:53 PM80 °FThunderstorms. Mostly cloudy.13 mph81%30.01 "Hg10 mi
6:53 PM83 °FSunny.8 mph74%29.98 "Hg10 mi
5:53 PM81 °FThundershowers. Sunny.9 mph85%29.97 "Hg10 mi
5:04 PM83 °FThundershowers. Scattered clouds.8 mph77%29.97 "Hg10 mi
4:53 PM83 °FThunderstorms. Cloudy.12 mph77%29.95 "Hg10 mi
3:53 PM86 °FThunderstorms. Partly sunny.7 mph72%29.97 "Hg10 mi
2:53 PM88 °FSunny.6 mph73%29.98 "Hg10 mi
1:53 PM89 °FSunny.6 mph70%30.01 "Hg10 mi
12:53 PM88 °FSunny.7 mph73%30.04 "Hg10 mi
11:53 AM87 °FSunny.6 mph72%30.05 "Hg10 mi
10:53 AM87 °FSunny.3 mph69%30.05 "Hg10 mi
Weather by CustomWeather, © 2016

See weather overviewHow to use our weather pages